369P/Hill (2018)

Japanese version
Home page
Updated on May 20, 2019

---------------------------------------------------------------------

* Profile

Designation 369P/2018 P1
Recovery Date August 10, 2018
Magnitude 19.0 mag
Recoverer E. Schwab (Egelsbach, Germany), P. Ruiz (European Space Agency's Optical Ground Station, Tenerife, Spain)

* Pictures

* Orbital Elements

Epoch 2018 Oct. 9.0 TT = JDT 2458400.5
T 2018 Oct. 15.14643 TT                                 MPCW
q   1.9571544            (2000.0)            P               Q
n   0.10712725     Peri.   13.27889     +0.49363911     -0.85965923
a   4.3907233      Node    47.32047     +0.78066246     +0.37135577
e   0.5542524      Incl.   10.30842     +0.38325782     +0.35082887
P   9.20
From 370 observations 2010 Jan. 6-2019 Apr. 1, mean residual 0".6.

* Finding Charts

* Magnitudes Graph

        m1 = 14.0 + 5 log d + 10.0 log r

---------------------------------------------------------------------

The orbital elements are published on M.P.E.C. 2019-J142.
The charts are made with StellaNavigator Ver.10 (AstroArts).
The magnitudes graphs are made with Comet for Windows.

---------------------------------------------------------------------

Copyright(C) Seiichi Yoshida (comet@aerith.net). All rights reserved.